Time,TemperatureF,DewpointF,PressureIn,WindDirection,WindDirectionDegrees,WindSpeedMPH,WindSpeedGustMPH,Humidity,HourlyPrecipIn,Conditions,Clouds,dailyrainin,SoftwareType,DateUTC
2013-04-23 00:02:00,40.0,31.0,-100.00,ESE,110,1.0,1.0,69,-99.99,,,-99.99,,2013-04-23 07:02:00,
2013-04-23 00:11:00,40.0,31.0,-100.00,ESE,110,1.0,1.0,69,-99.99,,,-99.99,,2013-04-23 07:11:00,
2013-04-23 01:02:00,44.0,28.0,-100.00,SE,145,2.0,7.0,53,-99.99,,,-99.99,,2013-04-23 08:02:00,
2013-04-23 01:11:00,44.0,28.0,-100.00,SE,145,2.0,7.0,53,-99.99,,,-99.99,,2013-04-23 08:11:00,
2013-04-23 02:01:00,44.0,27.0,-100.00,North,5,3.0,9.0,50,-99.99,,,-99.99,,2013-04-23 09:01:00,
2013-04-23 03:02:00,41.0,27.0,-100.00,North,5,5.0,9.0,57,-99.99,,,-99.99,,2013-04-23 10:02:00,
2013-04-23 03:13:00,41.0,27.0,-100.00,North,5,5.0,9.0,57,-99.99,,,-99.99,,2013-04-23 10:13:00,
2013-04-23 04:02:00,40.0,27.0,-100.00,SSE,150,2.0,6.0,59,-99.99,,,-99.99,,2013-04-23 11:02:00,
2013-04-23 05:02:00,39.0,27.0,-100.00,South,170,3.0,8.0,61,-99.99,,,-99.99,,2013-04-23 12:02:00,
2013-04-23 05:12:00,39.0,27.0,-100.00,South,170,3.0,8.0,61,-99.99,,,-99.99,,2013-04-23 12:12:00,
2013-04-23 06:01:00,39.0,27.0,-100.00,SSE,160,5.0,10.0,61,-99.99,,,-99.99,,2013-04-23 13:01:00,
2013-04-23 07:01:00,38.0,27.0,-100.00,NNE,20,3.0,9.0,64,-99.99,,,-99.99,,2013-04-23 14:01:00,
2013-04-23 07:11:00,38.0,27.0,-100.00,NNE,20,3.0,9.0,64,-99.99,,,-99.99,,2013-04-23 14:11:00,
2013-04-23 08:10:00,40.0,28.0,-100.00,SSE,160,3.0,7.0,61,-99.99,,,-99.99,,2013-04-23 15:10:00,
2013-04-23 09:03:00,40.0,28.0,-100.00,SSE,160,3.0,7.0,61,-99.99,,,-99.99,,2013-04-23 16:03:00,
2013-04-23 10:02:00,46.0,29.0,-100.00,NNE,25,2.0,7.0,51,-99.99,,,-99.99,,2013-04-23 17:02:00,
2013-04-23 10:10:00,51.0,28.0,-100.00,East,95,6.0,8.0,40,-99.99,,,-99.99,,2013-04-23 17:10:00,
2013-04-23 11:00:00,54.0,27.0,-100.00,ENE,75,3.0,7.0,35,-99.99,,,-99.99,,2013-04-23 18:00:00,
2013-04-23 11:02:00,51.0,28.0,-100.00,East,95,6.0,8.0,40,-99.99,,,-99.99,,2013-04-23 18:02:00,
2013-04-23 12:10:00,57.0,29.0,-100.00,NW,305,3.0,10.0,34,-99.99,,,-99.99,,2013-04-23 19:10:00,
2013-04-23 13:01:00,57.0,29.0,-100.00,NW,305,3.0,10.0,34,-99.99,,,-99.99,,2013-04-23 20:01:00,
2013-04-23 13:20:00,60.0,29.0,-100.00,WSW,255,7.0,10.0,30,-99.99,,,-99.99,,2013-04-23 20:20:00,
2013-04-23 14:01:00,60.0,29.0,-100.00,WSW,255,7.0,10.0,30,-99.99,,,-99.99,,2013-04-23 21:01:00,
2013-04-23 14:10:00,61.0,26.0,-100.00,WSW,240,8.0,12.0,26,-99.99,,,-99.99,,2013-04-23 21:10:00,
2013-04-23 14:11:00,60.0,29.0,-100.00,WSW,255,7.0,10.0,30,-99.99,,,-99.99,,2013-04-23 21:11:00,
2013-04-23 15:03:00,61.0,26.0,-100.00,WSW,240,8.0,12.0,26,-99.99,,,-99.99,,2013-04-23 22:03:00,
2013-04-23 16:02:00,63.0,24.0,-100.00,SSW,205,6.0,9.0,22,-99.99,,,-99.99,,2013-04-23 23:02:00,
2013-04-23 16:10:00,65.0,24.0,-100.00,West,280,2.0,7.0,20,-99.99,,,-99.99,,2013-04-23 23:10:00,
2013-04-23 16:12:00,63.0,24.0,-100.00,SSW,205,6.0,9.0,22,-99.99,,,-99.99,,2013-04-23 23:12:00,
2013-04-23 17:01:00,65.0,24.0,-100.00,West,280,2.0,7.0,20,-99.99,,,-99.99,,2013-04-24 00:01:00,
2013-04-23 18:01:00,65.0,21.0,-100.00,SW,215,3.0,10.0,18,-99.99,,,-99.99,,2013-04-24 01:01:00,
2013-04-23 18:11:00,65.0,21.0,-100.00,SW,215,3.0,10.0,18,-99.99,,,-99.99,,2013-04-24 01:11:00,
2013-04-23 19:02:00,65.0,21.0,-100.00,West,260,3.0,7.0,18,-99.99,,,-99.99,,2013-04-24 02:02:00,
2013-04-23 20:06:00,64.0,24.0,-100.00,ESE,115,1.0,3.0,21,-99.99,,,-99.99,,2013-04-24 03:06:00,
2013-04-23 20:14:00,64.0,24.0,-100.00,ESE,115,1.0,3.0,21,-99.99,,,-99.99,,2013-04-24 03:14:00,
2013-04-23 21:03:00,56.0,30.0,-100.00,SW,225,3.0,5.0,36,-99.99,,,-99.99,,2013-04-24 04:03:00,
2013-04-23 22:02:00,47.0,34.0,-100.00,NNE,30,1.0,1.0,60,-99.99,,,-99.99,,2013-04-24 05:02:00,
2013-04-23 22:12:00,47.0,34.0,-100.00,NNE,30,1.0,1.0,60,-99.99,,,-99.99,,2013-04-24 05:12:00,
2013-04-23 23:02:00,45.0,34.0,-100.00,SE,130,0.0,1.0,65,-99.99,,,-99.99,,2013-04-24 06:02:00,